Bloomington, IL

4:17 PM CDT on August 19, 2017 (GMT -0500)
Central Ill Regional

Weather History for KBMI - January, 2013

Change the Weather History Date:

Wednesday, January 30, 2013

  Actual Average Record
Temperature  
Mean Temperature 34 °F -  
Max Temperature 50 °F 21 °F 54 °F (2012)
Min Temperature 19 °F 8 °F -5 °F (1977)
Degree Days  
Heating Degree Days 30    
Moisture  
Dew Point 37 °F    
Average Humidity 95    
Maximum Humidity 100    
Minimum Humidity 78    
Precipitation  
Precipitation 0.16 in - - ()
Sea Level Pressure  
Sea Level Pressure 29.45 in    
Wind  
Wind Speed 13 mph (WSW)    
Max Wind Speed 31 mph    
Max Gust Speed 40 mph    
Visibility 6 miles    
Events Fog , Rain , Snow    
Averages and records for this station are not official NWS values.
T = Trace of Precipitation, MM = Missing Value Source: NWS Daily Summary

Daily Weather History Graph

Daily Weather History Graph

Search for Another Location

Airport or City:

Trip Planner

Search our weather history database for the weather conditions in past years. The results will help you decide how hot, cold, wet, or windy it might be!

Date:

Astronomy

Jan. 30, 2013 Rise Set
Actual Time 7:06 AM CST 5:11 PM CST
Civil Twilight 6:37 AM CST 5:40 PM CST
Nautical Twilight 6:05 AM CST 6:13 PM CST
Astronomical Twilight 5:33 AM CST 6:45 PM CST
Moon 9:11 PM CST (1/30) 8:33 AM CST (1/30)
Length of Visible Light 11h 02m
Length of Day
10h 04m
Waning Gibbous, 87% of the Moon is Illuminated
Jan 30
Waning Gibbous
Feb 3
Last Quarter
Feb 10
New
Feb 17
First Quarter
Feb 25
Full

Hourly Weather History & Observations

Time (CST) Temp. Windchill Dew Point Humidity Pressure Visibility Wind Dir Wind Speed Gust Speed Precip Events Conditions
12:03 AM 50.0 °F - 50.0 °F 100% 29.42 in 1.0 mi SSE 10.4 mph - 0.00 in Rain Light Rain
12:07 AM 50.0 °F - 50.0 °F 100% 29.42 in 0.5 mi SSE 9.2 mph - 0.00 in Fog , Rain Light Rain
12:35 AM 50.0 °F - 50.0 °F 100% 29.39 in 1.0 mi South 10.4 mph - 0.01 in Rain Light Rain
12:37 AM 50.0 °F - 50.0 °F 100% 29.40 in 1.5 mi South 9.2 mph - 0.01 in Rain Light Rain
12:39 AM 50.0 °F - 50.0 °F 100% 29.40 in 3.0 mi South 9.2 mph - 0.02 in Rain Light Rain
12:56 AM 50.0 °F - 50.0 °F 100% 29.41 in 4.0 mi South 10.4 mph - 0.03 in Rain Light Rain
1:18 AM 50.0 °F - 50.0 °F 100% 29.40 in 5.0 mi SSW 6.9 mph - 0.03 in Rain Light Rain
1:49 AM 50.0 °F - 50.0 °F 100% 29.42 in 5.0 mi SW 8.1 mph - 0.05 in Rain Light Rain
1:56 AM 50.0 °F - 50.0 °F 100% 29.41 in 4.0 mi SSW 6.9 mph - 0.06 in Rain Light Rain
2:56 AM 50.0 °F - 50.0 °F 100% 29.39 in 10.0 mi SW 10.4 mph - 0.02 in   Overcast
3:30 AM 50.0 °F - 50.0 °F 100% 29.43 in 2.0 mi West 16.1 mph - 0.01 in Rain Light Rain
3:42 AM 46.4 °F 40.7 °F 46.4 °F 100% 29.42 in 3.0 mi WNW 12.7 mph - 0.01 in Rain Light Rain
3:56 AM 45.0 °F 39.3 °F 45.0 °F 100% 29.41 in 3.0 mi WNW 11.5 mph - 0.02 in Rain Light Rain
4:04 AM 44.6 °F 40.7 °F 44.6 °F 100% 29.39 in 3.0 mi NW 6.9 mph - 0.00 in Rain Light Rain
4:39 AM 44.6 °F 42.2 °F 44.6 °F 100% 29.35 in 10.0 mi NE 4.6 mph - 0.01 in   Overcast
4:56 AM 43.0 °F 39.5 °F 43.0 °F 100% 29.34 in 4.0 mi NE 5.8 mph - 0.01 in   Overcast
5:48 AM 42.8 °F - 42.8 °F 100% 29.35 in 10.0 mi Calm Calm - N/A   Overcast
5:56 AM 43.0 °F 41.3 °F 43.0 °F 100% 29.38 in 10.0 mi South 3.5 mph - N/A   Overcast
6:12 AM 42.8 °F - 42.8 °F 100% 29.34 in 4.0 mi Calm Calm - 0.00 in Rain Light Rain
6:20 AM 42.8 °F 40.1 °F 42.8 °F 100% 29.35 in 2.5 mi South 4.6 mph - 0.00 in Rain Light Rain
6:41 AM 44.6 °F 41.4 °F 44.6 °F 100% 29.35 in 1.2 mi South 5.8 mph - 0.00 in Rain Light Rain
6:56 AM 43.9 °F 38.8 °F 43.9 °F 100% 29.36 in 1.5 mi South 9.2 mph - 0.00 in Rain Light Rain
7:06 AM 46.4 °F 41.1 °F 46.4 °F 100% 29.33 in 0.2 mi South 11.5 mph - 0.00 in Fog Fog
7:56 AM 47.8 °F - 47.8 °F 100% 29.32 in 3.0 mi SSW 16.1 mph 25.3 mph 0.00 in   Overcast
8:03 AM 48.2 °F - 48.2 °F 100% 29.30 in 9.0 mi SSW 21.9 mph 28.8 mph 0.01 in   Overcast
8:56 AM 50.0 °F - 48.9 °F 96% 29.29 in 10.0 mi SSW 23.0 mph 28.8 mph 0.01 in   Overcast
9:56 AM 38.8 °F 28.3 °F 37.9 °F 97% 29.34 in 10.0 mi West 23.0 mph 34.5 mph 0.01 in   Overcast
10:56 AM 37.9 °F 26.8 °F 34.9 °F 89% 29.36 in 10.0 mi WSW 24.2 mph 33.4 mph N/A   Overcast
11:56 AM 36.0 °F 24.2 °F 34.0 °F 93% 29.36 in 10.0 mi WSW 24.2 mph 31.1 mph N/A   Overcast
12:26 PM 35.6 °F 24.5 °F 33.8 °F 93% 29.33 in 10.0 mi West 20.7 mph 27.6 mph N/A   Overcast
12:33 PM 35.6 °F 24.8 °F 33.8 °F 93% 29.33 in 10.0 mi West 19.6 mph 26.5 mph 0.00 in Rain Light Rain
12:56 PM 34.9 °F 23.9 °F 32.9 °F 92% 29.37 in 10.0 mi West 19.6 mph 26.5 mph 0.00 in   Overcast
1:47 PM 33.8 °F 21.6 °F 32.0 °F 93% 29.35 in 8.0 mi West 23.0 mph 31.1 mph N/A   Overcast
1:56 PM 32.0 °F 20.1 °F 31.1 °F 96% 29.38 in 7.0 mi West 19.6 mph 29.9 mph N/A   Overcast
2:34 PM 30.2 °F 17.1 °F 30.2 °F 100% 29.38 in 2.5 mi West 21.9 mph 28.8 mph 0.00 in   Overcast
2:40 PM 30.2 °F 15.9 °F 30.2 °F 100% 29.39 in 1.5 mi West 26.5 mph 32.2 mph 0.00 in   Overcast
2:56 PM 31.1 °F 18.3 °F 29.1 °F 92% 29.42 in 2.0 mi West 21.9 mph 28.8 mph 0.00 in Rain Light Freezing Rain
3:56 PM 29.1 °F 16.0 °F 27.1 °F 92% 29.49 in 3.0 mi West 20.7 mph 28.8 mph 0.00 in Rain Light Freezing Rain
4:37 PM 26.6 °F 10.0 °F 24.8 °F 93% 29.49 in 10.0 mi WNW 31.1 mph 39.1 mph 0.00 in   Overcast
4:56 PM 27.1 °F 12.1 °F 23.0 °F 84% 29.55 in 10.0 mi WNW 25.3 mph 32.2 mph 0.00 in   Overcast
5:56 PM 26.1 °F 9.6 °F 23.0 °F 88% 29.59 in 9.0 mi WNW 29.9 mph 40.3 mph 0.00 in Snow Light Snow
6:56 PM 25.2 °F 9.8 °F 21.0 °F 84% 29.62 in 9.0 mi WNW 24.2 mph 35.7 mph 0.00 in Snow Light Snow
7:46 PM 23.0 °F 7.2 °F 19.4 °F 86% 29.61 in 3.0 mi West 23.0 mph 31.1 mph 0.00 in Snow Light Snow
7:56 PM 23.0 °F 6.3 °F 19.0 °F 85% 29.66 in 4.0 mi WNW 26.5 mph 31.1 mph 0.00 in Snow Light Snow
8:56 PM 21.0 °F 3.9 °F 17.1 °F 85% 29.70 in 5.0 mi WNW 25.3 mph 33.4 mph 0.00 in Snow Light Snow
9:56 PM 21.0 °F 4.3 °F 17.1 °F 85% 29.75 in 9.0 mi West 24.2 mph 29.9 mph 0.00 in Snow Light Snow
10:56 PM 21.0 °F 2.7 °F 15.1 °F 78% 29.77 in 10.0 mi West 29.9 mph 34.5 mph 0.00 in   Overcast
11:20 PM 19.4 °F 3.2 °F 15.8 °F 86% 29.73 in 10.0 mi West 20.7 mph 32.2 mph 0.00 in Snow Light Snow
11:34 PM 19.4 °F 3.6 °F 15.8 °F 86% 29.74 in 10.0 mi West 19.6 mph 25.3 mph 0.00 in Snow Light Snow
11:56 PM 19.0 °F 2.0 °F 14.0 °F 81% 29.81 in 4.0 mi West 23.0 mph 35.7 mph 0.00 in Snow Light Snow